Mansfield, OH

4:46 PM EST on November 14, 2019 (GMT -0500)
Mansfield Lahm Regional

Weather History for KMFD - August, 2019

Change the Weather History Date:

Wednesday, August 21, 2019

  Actual Average Record
Temperature  
Mean Temperature 75 °F 70 °F  
Max Temperature 83 °F 80 °F 101 °F (1936)
Min Temperature 67 °F 60 °F 38 °F (1940)
Degree Days  
Heating Degree Days 0 1  
Month to date heating degree days 0 2  
Since 1 June heating degree days 30 63  
Since 1 July heating degree days 0 10  
Cooling Degree Days 10 5  
Month to date cooling degree days 195 123  
Year to date cooling degree days 749 513  
Since 1 June cooling degree days 681 467  
Growing Degree Days 25 (Base 50)    
Moisture  
Dew Point 69 °F    
Average Humidity 81    
Maximum Humidity 97    
Minimum Humidity 65    
Precipitation  
Precipitation T in 0.14 in 4.34 in (2007)
Month to date precipitation 1.40 3.00  
Year to date precipitation 35.89 29.46  
Snow  
Snow 0.00 in 0.00 in - ()
Month to date snowfall 0.0 0.0  
Since 1 June snowfall 0.0 0.0  
Since 1 July snowfall 0.0 0.0  
Snow Depth 0.00 in    
Sea Level Pressure  
Sea Level Pressure 29.95 in    
Wind  
Wind Speed 7 mph (SW)    
Max Wind Speed 13 mph    
Max Gust Speed 17 mph    
Visibility 10 miles    
Events Rain    
T = Trace of Precipitation, MM = Missing Value Source: NWS Daily Summary

Daily Weather History Graph

Daily Weather History Graph

Search for Another Location

Airport or City:

Astronomy

Aug. 21, 2019 Rise Set
Actual Time 6:45 AM EDT 8:19 PM EDT
Civil Twilight 6:16 AM EDT 8:48 PM EDT
Nautical Twilight 5:41 AM EDT 9:23 PM EDT
Astronomical Twilight 5:04 AM EDT 10:00 PM EDT
Moon 11:34 PM EDT (8/21) 12:22 PM EDT (8/21)
Length of Visible Light 14h 31m
Length of Day
13h 33m
Waning Gibbous, 69% of the Moon is Illuminated
Aug 21
Waning Gibbous
Aug 23
Last Quarter
Aug 30
New
Sep 5
First Quarter
Sep 14
Full

Hourly Weather History & Observations

Time (EDT) Temp. Heat Index Dew Point Humidity Pressure Visibility Wind Dir Wind Speed Gust Speed Precip Events Conditions
12:52 AM 71.1 °F - 70.0 °F 96% 29.95 in 7.0 mi South 5.8 mph - N/A   Scattered Clouds
1:52 AM 73.0 °F - 72.0 °F 96% 29.95 in 7.0 mi SW 8.1 mph - 0.00 in Rain Light Rain
2:52 AM 72.0 °F - 70.0 °F 93% 29.94 in 10.0 mi West 5.8 mph - 0.00 in   Mostly Cloudy
3:52 AM 71.1 °F - 70.0 °F 96% 29.93 in 10.0 mi WSW 5.8 mph - N/A   Scattered Clouds
4:52 AM 72.0 °F - 68.0 °F 87% 29.92 in 10.0 mi WSW 6.9 mph - N/A   Partly Cloudy
5:52 AM 70.0 °F - 66.9 °F 90% 29.93 in 10.0 mi SSW 5.8 mph - N/A   Partly Cloudy
6:52 AM 68.0 °F - 66.9 °F 96% 29.94 in 9.0 mi SSW 5.8 mph - N/A   Clear
7:52 AM 70.0 °F - 68.0 °F 93% 29.95 in 10.0 mi West 4.6 mph - N/A   Scattered Clouds
8:01 AM 70.0 °F - 68.0 °F 93% 29.97 in 10.0 mi WSW 4.6 mph - N/A   Mostly Cloudy
8:14 AM 71.1 °F - 68.0 °F 90% 29.97 in 9.0 mi Variable 3.5 mph - N/A   Mostly Cloudy
8:28 AM 71.1 °F - 69.1 °F 93% 29.98 in 9.0 mi West 4.6 mph - N/A   Mostly Cloudy
8:52 AM 71.1 °F - 69.1 °F 93% 29.95 in 9.0 mi WNW 4.6 mph - N/A   Overcast
9:16 AM 72.0 °F - 69.1 °F 91% 29.97 in 9.0 mi WSW 4.6 mph - N/A   Overcast
9:52 AM 72.0 °F - 68.0 °F 87% 29.95 in 10.0 mi West 3.5 mph - N/A   Overcast
10:36 AM 75.0 °F - 68.0 °F 79% 29.99 in 10.0 mi SW 6.9 mph - N/A   Scattered Clouds
10:52 AM 75.9 °F - 68.0 °F 76% 29.98 in 10.0 mi SW 8.1 mph - N/A   Mostly Cloudy
11:52 AM 75.9 °F - 68.0 °F 76% 29.96 in 10.0 mi SSW 9.2 mph - N/A   Mostly Cloudy
12:08 PM 78.1 °F - 68.0 °F 71% 29.98 in 10.0 mi SSW 6.9 mph - N/A   Mostly Cloudy
12:21 PM 77.0 °F - 68.0 °F 74% 29.98 in 10.0 mi SW 6.9 mph - N/A   Overcast
12:52 PM 79.0 °F - 69.1 °F 72% 29.96 in 10.0 mi WSW 8.1 mph - N/A   Overcast
1:42 PM 78.1 °F - 68.0 °F 71% 29.98 in 10.0 mi West 9.2 mph - N/A   Mostly Cloudy
1:52 PM 78.1 °F - 68.0 °F 71% 29.95 in 10.0 mi WSW 5.8 mph - N/A   Mostly Cloudy
2:52 PM 81.0 °F 83.8 °F 68.0 °F 65% 29.95 in 10.0 mi WSW 10.4 mph 17.3 mph N/A   Scattered Clouds
3:52 PM 82.0 °F 85.5 °F 69.1 °F 65% 29.95 in 10.0 mi SW 9.2 mph - N/A   Scattered Clouds
4:52 PM 82.0 °F 85.5 °F 69.1 °F 65% 29.94 in 10.0 mi WSW 10.4 mph - N/A   Mostly Cloudy
5:52 PM 81.0 °F 84.1 °F 69.1 °F 67% 29.94 in 10.0 mi SW 10.4 mph - N/A   Partly Cloudy
6:52 PM 80.1 °F 82.9 °F 69.1 °F 69% 29.94 in 10.0 mi WSW 8.1 mph - N/A   Scattered Clouds
7:52 PM 77.0 °F - 69.1 °F 76% 29.91 in 10.0 mi SSW 5.8 mph - N/A   Clear
8:52 PM 73.0 °F - 69.1 °F 87% 29.94 in 10.0 mi SW 5.8 mph - N/A   Clear
9:52 PM 71.1 °F - 68.0 °F 90% 29.94 in 10.0 mi SW 3.5 mph - N/A   Clear
10:52 PM 71.1 °F - 69.1 °F 93% 29.94 in 10.0 mi SW 5.8 mph - N/A   Clear
11:52 PM 71.1 °F - 69.1 °F 93% 29.94 in 10.0 mi SSW 6.9 mph - N/A   Clear